Simultaneous Nadir Overpasses (SNOs) Predictions

Prediction of SNOs between GOES-16 and AQUA Satellite Orbit:

Table of predicted SNOs for the next 14.0 days since TLE Epoch: 12/14/2018
Index Date Time (GOES-16) GOES-16 Lat,Lon AQUA Lat,Lon Distance(km) Time Diff (sec)
1 12/15/2018 18:20:23 0.00, -75.14 0.71, -71.65 396.76 80
2 12/16/2018 06:44:20 0.00, -75.15 0.34, -76.82 189.49 80
3 12/18/2018 06:29:29 0.00, -75.16 -0.26, -73.86 147.79 80
4 12/18/2018 18:53:33 -0.01, -75.16 -0.83, -79.05 441.96 80
5 12/20/2018 06:17:19 0.01, -75.17 -0.93, -70.91 485.38 80
6 12/20/2018 18:41:22 -0.01, -75.18 -0.22, -76.09 104.34 80
7 12/22/2018 18:26:32 -0.01, -75.19 0.45, -73.14 233.37 80
8 12/23/2018 06:50:28 0.02, -75.20 0.66, -78.30 352.49 80
9 12/25/2018 06:38:17 0.01, -75.21 0.04, -75.34 14.55 80
10 12/27/2018 06:23:26 0.01, -75.24 -0.58, -72.39 323.99 80
11 12/27/2018 18:47:30 -0.01, -75.24 -0.51, -77.58 265.44 80




NCC Satellite Simultaneous Nadir Overpasses (SNOs) Prediction Service
